FW7500 Weather Reports


Display with metric or nautical units.
time (UTC)temp
F
wind
direction
speed
MPH
gust
MPH
rain 1hr
in
rain 24hr
in
rain mn
in
humidity
%
barometer
mb
20260504184550 72 360 6.0 19.0 0.00 0.01 0.01 55 1010.0
20260504183054 71 264 8.0 19.0 0.00 0.01 0.01 58 1009.9
20260504181551 71 274 11.0 18.0 0.00 0.01 0.01 57 1009.8
20260504180052 70 276 11.0 19.0 0.00 0.01 0.01 58 1009.8
20260504174547 69 360 10.0 19.0 0.00 0.01 0.01 58 1009.8
20260504173049 69 360 6.0 14.0 0.00 0.01 0.01 59 1009.9
20260504171554 67 360 8.0 13.0 0.00 0.01 0.01 64 1009.9
20260504150107 62 360 5.0 11.0 0.00 0.01 0.01 70 1010.3
20260504081553 52 360 7.0 12.0 0.00 0.00 0.00 61 1011.9
20260504080110 52 360 6.0 12.0 0.00 0.00 0.00 61 1012.0
20260504044551 54 360 5.0 9.0 0.00 0.00 0.00 56 1013.7
20260504043108 54 198 4.0 9.0 0.00 0.00 0.00 55 1013.8
20260504041553 54 360 6.0 10.0 0.00 0.00 0.00 54 1013.9
20260504040113 55 360 5.0 11.0 0.00 0.00 0.00 53 1014.1
20260504034546 55 360 6.0 10.0 0.00 0.00 0.00 53 1014.2
20260504033049 55 360 6.0 9.0 0.00 0.00 0.00 52 1014.4
20260504031551 55 360 6.0 13.0 0.00 0.00 0.00 52 1014.2
20260504030048 56 360 6.0 12.0 0.00 0.00 0.00 51 1014.3
20260504024554 56 360 6.0 10.0 0.00 0.00 0.00 50 1014.5
20260504023057 57 360 6.0 12.0 0.00 0.00 0.00 49 1014.5
20260504021551 57 360 8.0 15.0 0.00 0.00 0.00 49 1013.9
20260504020048 56 360 7.0 17.0 0.00 0.00 0.00 49 1014.3
20260504014604 55 360 7.0 13.0 0.00 0.00 0.00 54 1013.8
20260504013049 54 360 6.0 9.0 0.00 0.00 0.00 59 1013.6
20260504011552 54 360 4.0 7.0 0.00 0.00 0.00 60 1014.4
20260504010052 55 360 2.0 6.0 0.00 0.00 0.00 56 1014.5
20260504004551 55 360 4.0 7.0 0.00 0.00 0.00 56 1014.3
20260504003055 56 360 2.0 4.0 0.00 0.00 0.00 51 1014.3
20260504001604 57 360 2.0 6.0 0.00 0.00 0.00 47 1013.9
20260504000108 57 360 2.0 10.0 0.00 0.00 0.00 45 1014.2
20260503234549 58 360 5.0 14.0 0.00 0.00 0.00 42 1013.9
20260503233045 59 360 5.0 12.0 0.00 0.00 0.00 40 1014.0
20260503231543 59 360 6.0 14.0 0.00 0.00 0.00 39 1014.3
20260503230050 59 360 8.0 14.0 0.00 0.00 0.00 38 1014.5
20260503224547 59 360 7.0 14.0 0.00 0.00 0.00 38 1015.1
20260503223046 60 360 10.0 17.0 0.00 0.00 0.00 36 1015.1
20260503221553 61 253 9.0 14.0 0.00 0.00 0.00 36 1015.5
20260503220050 61 360 7.0 11.0 0.00 0.00 0.00 37 1015.7
20260503214552 61 245 7.0 13.0 0.00 0.00 0.00 39 1015.7
20260503213052 61 287 8.0 17.0 0.00 0.00 0.00 35 1015.9
20260503211549 61 301 8.0 17.0 0.00 0.00 0.00 33 1015.8
20260503210051 61 246 6.0 14.0 0.00 0.00 0.00 35 1015.9
20260503204550 61 360 8.0 19.0 0.00 0.00 0.00 35 1016.0
20260503203049 61 360 7.0 16.0 0.00 0.00 0.00 35 1016.0
20260503201548 61 360 10.0 16.0 0.00 0.00 0.00 35 1016.4
20260503200058 61 360 9.0 19.0 0.00 0.00 0.00 38 1016.4
20260503194557 61 299 6.0 14.0 0.00 0.00 0.00 35 1017.0
20260503193117 61 254 8.0 18.0 0.00 0.00 0.00 35 1017.5
20260503191605 60 360 7.0 17.0 0.00 0.00 0.00 37 1017.6
20260503190053 60 360 7.0 22.0 0.00 0.00 0.00 38 1017.6